| DS18B20 | SHTC3 | ||||||
|---|---|---|---|---|---|---|---|
| ID | Date d/m/Y & Time | data1 สูง | data2 ต่ำ | data3 นอก | temp pcb | hum pcb | Time |
| 1442 | 11/03/2026 10:23:10 | 28.8  | 28.4  | 29.8  | 28.6  | 68.0  | 10:23 |
| 1441 | 11/03/2026 10:18:28 | 28.8  | 28.2  | 30.3  | 28.4  | 67.9  | 10:18 |
| 1440 | 11/03/2026 10:13:47 | 28.6  | 28.2  | 30.4  | 28.1  | 68.1  | 10:13 |
| 1439 | 11/03/2026 10:09:05 | 28.5  | 28.1  | 30.2  | 28.1  | 68.4  | 10:09 |
| 1438 | 11/03/2026 10:04:23 | 28.4  | 28.0  | 29.9  | 27.9  | 68.3  | 10:04 |
| 1437 | 11/03/2026 09:59:42 | 28.3  | 27.9  | 29.6  | 28.0  | 68.6  | 09:59 |
| 1436 | 11/03/2026 09:55:00 | 28.2  | 27.9  | 29.4  | 27.9  | 68.5  | 09:55 |
| 1435 | 11/03/2026 09:50:18 | 28.1  | 27.8  | 29.7  | 27.8  | 68.7  | 09:50 |
| 1434 | 11/03/2026 09:45:36 | 28.0  | 27.7  | 29.5  | 27.6  | 68.8  | 09:45 |
| 1433 | 11/03/2026 09:40:55 | 27.9  | 27.7  | 29.3  | 27.6  | 68.8  | 09:40 |
| 1432 | 11/03/2026 09:36:13 | 27.9  | 27.6  | 29.0  | 27.6  | 68.8  | 09:36 |
| 1431 | 11/03/2026 09:31:31 | 27.8  | 27.6  | 28.9  | 27.5  | 68.8  | 09:31 |
| 1430 | 11/03/2026 09:26:49 | 27.8  | 27.5  | 28.7  | 27.5  | 68.9  | 09:26 |
| 1429 | 11/03/2026 09:22:07 | 27.8  | 27.4  | 28.7  | 27.5  | 68.9  | 09:22 |
| 1428 | 11/03/2026 09:17:26 | 27.7  | 27.4  | 28.6  | 27.5  | 69.0  | 09:17 |
| 1427 | 11/03/2026 09:12:44 | 27.6  | 27.3  | 28.7  | 27.1  | 69.1  | 09:12 |
| 1426 | 11/03/2026 09:08:03 | 27.6  | 27.2  | 28.6  | 27.2  | 69.0  | 09:08 |
| 1425 | 11/03/2026 09:03:22 | 27.5  | 27.2  | 28.7  | 27.1  | 69.1  | 09:03 |
| 1424 | 11/03/2026 08:58:40 | 27.4  | 27.1  | 28.8  | 27.1  | 69.2  | 08:58 |
| 1423 | 11/03/2026 08:53:58 | 27.3  | 27.1  | 28.4  | 27.1  | 69.2  | 08:53 |
| 1422 | 11/03/2026 08:49:17 | 27.2  | 27.1  | 28.3  | 27.1  | 69.4  | 08:49 |
| 1421 | 11/03/2026 08:44:35 | 27.1  | 26.9  | 28.4  | 26.9  | 69.5  | 08:44 |
| 1420 | 11/03/2026 08:39:53 | 27.1  | 26.9  | 28.2  | 26.9  | 69.7  | 08:39 |
| 1419 | 11/03/2026 08:35:12 | 26.9  | 26.8  | 28.1  | 26.7  | 69.7  | 08:35 |